Time,TemperatureF,DewpointF,PressureIn,WindDirection,WindDirectionDegrees,WindSpeedMPH,WindSpeedGustMPH,Humidity,HourlyPrecipIn,Conditions,Clouds,dailyrainin,SolarRadiationWatts/m^2,SoftwareType,DateUTC
2013-03-05 00:01:00,50.0,50.0,-100.00,North,354,7.0,10.0,100,0.00,,,-99.99,0.000000,,2013-03-05 06:01:00,
2013-03-05 00:32:00,51.0,51.0,-100.00,NNW,336,6.0,9.0,99,0.00,,,-99.99,0.000000,,2013-03-05 06:32:00,
2013-03-05 00:42:00,51.0,51.0,-100.00,NNW,336,6.0,9.0,99,0.00,,,-99.99,0.000000,,2013-03-05 06:42:00,
2013-03-05 00:52:00,51.0,51.0,-100.00,NNW,336,6.0,9.0,99,0.00,,,-99.99,0.000000,,2013-03-05 06:52:00,
2013-03-05 01:01:00,51.0,51.0,-100.00,NNW,336,6.0,9.0,99,0.00,,,-99.99,0.000000,,2013-03-05 07:01:00,
2013-03-05 01:32:00,46.0,46.0,-100.00,NW,318,16.0,23.0,100,0.00,,,0.00,0.000000,,2013-03-05 07:32:00,
2013-03-05 01:42:00,46.0,46.0,-100.00,NW,318,16.0,23.0,100,0.00,,,0.00,0.000000,,2013-03-05 07:42:00,
2013-03-05 01:52:00,46.0,46.0,-100.00,NW,318,16.0,23.0,100,0.00,,,0.00,0.000000,,2013-03-05 07:52:00,
2013-03-05 02:02:00,46.0,46.0,-100.00,NW,318,16.0,23.0,100,0.00,,,0.00,0.000000,,2013-03-05 08:02:00,
2013-03-05 03:32:00,39.0,33.0,-100.00,NNW,328,20.0,33.0,80,-99.99,,,0.00,0.000000,,2013-03-05 09:32:00,
2013-03-05 03:43:00,39.0,33.0,-100.00,NNW,328,20.0,33.0,80,-99.99,,,0.00,0.000000,,2013-03-05 09:43:00,
2013-03-05 03:52:00,39.0,33.0,-100.00,NNW,328,20.0,33.0,80,-99.99,,,0.00,0.000000,,2013-03-05 09:52:00,
2013-03-05 04:01:00,39.0,33.0,-100.00,NNW,328,20.0,33.0,80,-99.99,,,0.00,0.000000,,2013-03-05 10:01:00,
2013-03-05 04:32:00,37.0,32.0,-100.00,NNW,329,24.0,37.0,83,0.00,,,-99.99,0.000000,,2013-03-05 10:32:00,
2013-03-05 04:42:00,37.0,32.0,-100.00,NNW,329,24.0,37.0,83,0.00,,,-99.99,0.000000,,2013-03-05 10:42:00,
2013-03-05 04:52:00,37.0,32.0,-100.00,NNW,329,24.0,37.0,83,0.00,,,-99.99,0.000000,,2013-03-05 10:52:00,
2013-03-05 05:01:00,37.0,32.0,-100.00,NNW,329,24.0,37.0,83,0.00,,,-99.99,0.000000,,2013-03-05 11:01:00,
2013-03-05 05:32:00,36.0,35.0,-100.00,NNW,331,22.0,35.0,96,0.00,,,0.00,0.000000,,2013-03-05 11:32:00,
2013-03-05 05:42:00,36.0,35.0,-100.00,NNW,331,22.0,35.0,96,0.00,,,0.00,0.000000,,2013-03-05 11:42:00,
2013-03-05 05:52:00,36.0,35.0,-100.00,NNW,331,22.0,35.0,96,0.00,,,0.00,0.000000,,2013-03-05 11:52:00,
2013-03-05 06:02:00,36.0,35.0,-100.00,NNW,331,22.0,35.0,96,0.00,,,0.00,0.000000,,2013-03-05 12:02:00,
2013-03-05 06:32:00,35.0,34.0,-100.00,NNW,329,16.0,32.0,95,0.01,,,0.01,0.000000,,2013-03-05 12:32:00,
2013-03-05 06:42:00,35.0,34.0,-100.00,NNW,329,16.0,32.0,95,0.01,,,0.01,0.000000,,2013-03-05 12:42:00,
2013-03-05 06:52:00,35.0,34.0,-100.00,NNW,329,16.0,32.0,95,0.01,,,0.01,0.000000,,2013-03-05 12:52:00,
2013-03-05 07:02:00,35.0,34.0,-100.00,NNW,329,16.0,32.0,95,0.01,,,0.01,0.000000,,2013-03-05 13:02:00,
2013-03-05 07:32:00,34.0,32.0,-100.00,NNW,327,24.0,39.0,94,0.00,,,0.01,9.000000,,2013-03-05 13:32:00,
2013-03-05 07:42:00,34.0,32.0,-100.00,NNW,327,24.0,39.0,94,0.00,,,0.01,9.000000,,2013-03-05 13:42:00,
2013-03-05 07:52:00,34.0,32.0,-100.00,NNW,327,24.0,39.0,94,0.00,,,0.01,9.000000,,2013-03-05 13:52:00,
2013-03-05 08:02:00,34.0,32.0,-100.00,NNW,327,24.0,39.0,94,0.00,,,0.01,9.000000,,2013-03-05 14:02:00,
2013-03-05 08:32:00,34.0,32.0,-100.00,NNW,328,17.0,33.0,91,0.00,,,0.01,43.000000,,2013-03-05 14:32:00,
2013-03-05 08:42:00,34.0,32.0,-100.00,NNW,328,17.0,33.0,91,0.00,,,0.01,43.000000,,2013-03-05 14:42:00,
2013-03-05 08:52:00,34.0,32.0,-100.00,NNW,328,17.0,33.0,91,0.00,,,0.01,43.000000,,2013-03-05 14:52:00,
2013-03-05 09:01:00,34.0,32.0,-100.00,NNW,328,17.0,33.0,91,0.00,,,0.01,43.000000,,2013-03-05 15:01:00,
2013-03-05 09:32:00,36.0,29.0,-100.00,NW,307,16.0,31.0,77,0.00,,,0.01,206.000000,,2013-03-05 15:32:00,
2013-03-05 09:42:00,36.0,29.0,-100.00,NW,307,16.0,31.0,77,0.00,,,0.01,206.000000,,2013-03-05 15:42:00,
2013-03-05 09:52:00,36.0,29.0,-100.00,NW,307,16.0,31.0,77,0.00,,,0.01,206.000000,,2013-03-05 15:52:00,
2013-03-05 10:01:00,36.0,29.0,-100.00,NW,307,16.0,31.0,77,0.00,,,0.01,206.000000,,2013-03-05 16:01:00,
2013-03-05 10:32:00,38.0,26.0,-100.00,WNW,298,19.0,29.0,62,0.00,,,0.01,493.000000,,2013-03-05 16:32:00,
2013-03-05 10:42:00,38.0,26.0,-100.00,WNW,298,19.0,29.0,62,0.00,,,0.01,493.000000,,2013-03-05 16:42:00,
2013-03-05 10:52:00,38.0,26.0,-100.00,WNW,298,19.0,29.0,62,0.00,,,0.01,493.000000,,2013-03-05 16:52:00,
2013-03-05 11:01:00,38.0,26.0,-100.00,WNW,298,19.0,29.0,62,0.00,,,0.01,493.000000,,2013-03-05 17:01:00,
2013-03-05 11:32:00,39.0,23.0,-100.00,WNW,298,17.0,28.0,53,0.00,,,0.01,803.000000,,2013-03-05 17:32:00,
2013-03-05 11:42:00,39.0,23.0,-100.00,WNW,298,17.0,28.0,53,0.00,,,0.01,803.000000,,2013-03-05 17:42:00,
2013-03-05 11:52:00,39.0,23.0,-100.00,WNW,298,17.0,28.0,53,0.00,,,0.01,803.000000,,2013-03-05 17:52:00,
2013-03-05 12:02:00,39.0,23.0,-100.00,WNW,298,17.0,28.0,53,0.00,,,0.01,803.000000,,2013-03-05 18:02:00,
2013-03-05 12:32:00,38.0,13.0,-100.00,WNW,295,17.0,32.0,36,0.00,,,0.01,935.000000,,2013-03-05 18:32:00,
2013-03-05 12:42:00,38.0,13.0,-100.00,WNW,295,17.0,32.0,36,0.00,,,0.01,935.000000,,2013-03-05 18:42:00,
2013-03-05 12:53:00,38.0,13.0,-100.00,WNW,295,17.0,32.0,36,0.00,,,0.01,935.000000,,2013-03-05 18:53:00,
2013-03-05 13:01:00,38.0,13.0,-100.00,WNW,295,17.0,32.0,36,0.00,,,0.01,935.000000,,2013-03-05 19:01:00,
2013-03-05 13:32:00,41.0,15.0,-100.00,NW,307,14.0,30.0,35,0.00,,,0.01,974.000000,,2013-03-05 19:32:00,
2013-03-05 13:42:00,41.0,15.0,-100.00,NW,307,14.0,30.0,35,0.00,,,0.01,974.000000,,2013-03-05 19:42:00,
2013-03-05 13:52:00,41.0,15.0,-100.00,NW,307,14.0,30.0,35,0.00,,,0.01,974.000000,,2013-03-05 19:52:00,
2013-03-05 14:01:00,41.0,15.0,-100.00,NW,307,14.0,30.0,35,0.00,,,0.01,974.000000,,2013-03-05 20:01:00,
2013-03-05 14:32:00,41.0,14.0,-100.00,WNW,300,16.0,33.0,33,0.00,,,0.01,936.000000,,2013-03-05 20:32:00,
2013-03-05 14:42:00,41.0,14.0,-100.00,WNW,300,16.0,33.0,33,0.00,,,0.01,936.000000,,2013-03-05 20:42:00,
2013-03-05 14:52:00,41.0,14.0,-100.00,WNW,300,16.0,33.0,33,0.00,,,0.01,936.000000,,2013-03-05 20:52:00,
2013-03-05 15:02:00,41.0,14.0,-100.00,WNW,300,16.0,33.0,33,0.00,,,0.01,936.000000,,2013-03-05 21:02:00,
2013-03-05 15:32:00,42.0,14.0,-100.00,NW,307,17.0,30.0,32,0.00,,,0.01,822.000000,,2013-03-05 21:32:00,
2013-03-05 15:42:00,42.0,14.0,-100.00,NW,307,17.0,30.0,32,0.00,,,0.01,822.000000,,2013-03-05 21:42:00,
2013-03-05 15:52:00,42.0,14.0,-100.00,NW,307,17.0,30.0,32,0.00,,,0.01,822.000000,,2013-03-05 21:52:00,
2013-03-05 16:01:00,42.0,14.0,-100.00,NW,307,17.0,30.0,32,0.00,,,0.01,822.000000,,2013-03-05 22:01:00,
2013-03-05 16:32:00,42.0,15.0,-100.00,WNW,303,19.0,30.0,33,0.00,,,0.01,635.000000,,2013-03-05 22:32:00,
2013-03-05 16:42:00,42.0,15.0,-100.00,WNW,303,19.0,30.0,33,0.00,,,0.01,635.000000,,2013-03-05 22:42:00,
2013-03-05 16:52:00,42.0,15.0,-100.00,WNW,303,19.0,30.0,33,0.00,,,0.01,635.000000,,2013-03-05 22:52:00,
2013-03-05 17:01:00,42.0,15.0,-100.00,WNW,303,19.0,30.0,33,0.00,,,0.01,635.000000,,2013-03-05 23:01:00,
2013-03-05 17:32:00,42.0,16.0,-100.00,WNW,301,14.0,29.0,34,0.00,,,0.01,397.000000,,2013-03-05 23:32:00,
2013-03-05 17:42:00,42.0,16.0,-100.00,WNW,301,14.0,29.0,34,0.00,,,0.01,397.000000,,2013-03-05 23:42:00,
2013-03-05 17:53:00,42.0,16.0,-100.00,WNW,301,14.0,29.0,34,0.00,,,0.01,397.000000,,2013-03-05 23:53:00,
2013-03-05 18:01:00,42.0,16.0,-100.00,WNW,301,14.0,29.0,34,0.00,,,0.01,397.000000,,2013-03-06 00:01:00,
2013-03-05 18:32:00,39.0,15.0,-100.00,NW,304,14.0,28.0,37,0.00,,,0.01,138.000000,,2013-03-06 00:32:00,
2013-03-05 18:42:00,39.0,15.0,-100.00,NW,304,14.0,28.0,37,0.00,,,0.01,138.000000,,2013-03-06 00:42:00,
2013-03-05 18:52:00,39.0,15.0,-100.00,NW,304,14.0,28.0,37,0.00,,,0.01,138.000000,,2013-03-06 00:52:00,
2013-03-05 19:02:00,39.0,15.0,-100.00,NW,304,14.0,28.0,37,0.00,,,0.01,138.000000,,2013-03-06 01:02:00,
2013-03-05 19:32:00,36.0,16.0,-100.00,NW,305,9.0,24.0,43,0.00,,,-99.99,2.000000,,2013-03-06 01:32:00,
2013-03-05 19:42:00,36.0,16.0,-100.00,NW,305,9.0,24.0,43,0.00,,,-99.99,2.000000,,2013-03-06 01:42:00,
2013-03-05 19:52:00,36.0,16.0,-100.00,NW,305,9.0,24.0,43,0.00,,,-99.99,2.000000,,2013-03-06 01:52:00,
2013-03-05 20:01:00,36.0,16.0,-100.00,NW,305,9.0,24.0,43,0.00,,,-99.99,2.000000,,2013-03-06 02:01:00,
2013-03-05 20:32:00,36.0,18.0,-100.00,NW,311,12.0,24.0,47,0.00,,,0.01,0.000000,,2013-03-06 02:32:00,
2013-03-05 20:42:00,36.0,18.0,-100.00,NW,311,12.0,24.0,47,0.00,,,0.01,0.000000,,2013-03-06 02:42:00,
2013-03-05 20:52:00,36.0,18.0,-100.00,NW,311,12.0,24.0,47,0.00,,,0.01,0.000000,,2013-03-06 02:52:00,
2013-03-05 21:01:00,36.0,18.0,-100.00,NW,311,12.0,24.0,47,0.00,,,0.01,0.000000,,2013-03-06 03:01:00,
2013-03-05 21:32:00,35.0,19.0,-100.00,NW,316,11.0,22.0,52,0.00,,,0.01,0.000000,,2013-03-06 03:32:00,
2013-03-05 21:42:00,35.0,19.0,-100.00,NW,316,11.0,22.0,52,0.00,,,0.01,0.000000,,2013-03-06 03:42:00,
2013-03-05 21:52:00,35.0,19.0,-100.00,NW,316,11.0,22.0,52,0.00,,,0.01,0.000000,,2013-03-06 03:52:00,
2013-03-05 22:02:00,35.0,19.0,-100.00,NW,316,11.0,22.0,52,0.00,,,0.01,0.000000,,2013-03-06 04:02:00,
2013-03-05 22:32:00,33.0,19.0,-100.00,NW,326,12.0,22.0,57,0.00,,,0.01,0.000000,,2013-03-06 04:32:00,
2013-03-05 22:42:00,33.0,19.0,-100.00,NW,326,12.0,22.0,57,0.00,,,0.01,0.000000,,2013-03-06 04:42:00,
2013-03-05 22:52:00,33.0,19.0,-100.00,NW,326,12.0,22.0,57,0.00,,,0.01,0.000000,,2013-03-06 04:52:00,
2013-03-05 23:02:00,33.0,19.0,-100.00,NW,326,12.0,22.0,57,0.00,,,0.01,0.000000,,2013-03-06 05:02:00,
2013-03-05 23:32:00,31.0,19.0,-100.00,NW,314,15.0,24.0,61,0.00,,,0.01,0.000000,,2013-03-06 05:32:00,
2013-03-05 23:42:00,31.0,19.0,-100.00,NW,314,15.0,24.0,61,0.00,,,0.01,0.000000,,2013-03-06 05:42:00,
2013-03-05 23:52:00,31.0,19.0,-100.00,NW,314,15.0,24.0,61,0.00,,,0.01,0.000000,,2013-03-06 05:52:00,